Weather History for Crescent City, CA

Change the Weather History Date:

Sunday, January 26, 2014

  Actual Average Record
Temperature  
Mean Temperature 48 °F 48 °F  
Max Temperature 60 °F 54 °F 70 °F (2011)
Min Temperature 36 °F 41 °F 28 °F (1963)
Degree Days  
Heating Degree Days 17 17  
Month to date heating degree days 399 442  
Since 1 July heating degree days 2636 2598  
Cooling Degree Days 0 0  
Month to date cooling degree days 0 0  
Year to date cooling degree days 0 0  
Moisture  
Dew Point 42 °F    
Average Humidity 76    
Maximum Humidity 100    
Minimum Humidity 51    
Precipitation  
Precipitation 0.00 in 0.25 in 3.41 in (1983)
Month to date precipitation 1.14 9.12  
Year to date precipitation 1.14 9.12  
Since 1 July precipitation 10.13 36.22  
Snow  
Snow 0.00 in - - ()
Month to date snowfall 0.0  
Since 1 July snowfall 0.0  
Snow Depth 0.00 in    
Sea Level Pressure  
Sea Level Pressure 30.13 in    
Wind  
Wind Speed 3 mph (North)    
Max Wind Speed 10 mph    
Max Gust Speed 13 mph    
Visibility 5 miles    
Events Fog    
T = Trace of Precipitation, MM = Missing Value Source: NWS Daily Summary

Daily Weather History Graph

Daily Weather History Graph

Search for Another Location

Airport:

Trip Planner

Search our weather history database for the weather conditions in past years. The results will help you decide how hot, cold, wet, or windy it might be!

Date:

Astronomy

Jan. 26, 2014 Rise Set
Actual Time 7:34 AM PST 5:24 PM PST
Civil Twilight 7:04 AM PST 5:54 PM PST
Nautical Twilight 6:31 AM PST 6:28 PM PST
Astronomical Twilight 5:58 AM PST 7:01 PM PST
Moon 3:18 AM PST (1/26) 1:18 PM PST (1/26)
Length of Visible Light 10h 50m
Length of Day
9h 50m
Waning Crescent, 23% of the Moon is Illuminated
Jan 26
Waning Crescent
Jan 30
New
Feb 6
First Quarter
Feb 14
Full
Feb 22
Last Quarter

Hourly Weather History & Observations

Time (PST) Temp. Windchill Dew Point Humidity Pressure Visibility Wind Dir Wind Speed Gust Speed Precip Events Conditions
12:56 AM 46.9 °F - 45.0 °F 93% 30.20 in 0.2 mi ESE 4.6 mph - N/A Fog Fog
1:56 AM 43.0 °F - 43.0 °F 100% 30.18 in 0.2 mi Calm Calm - N/A Fog Fog
2:56 AM 39.9 °F 36.7 °F 39.9 °F 100% 30.16 in 1.2 mi East 4.6 mph - N/A   Partly Cloudy
2:59 AM 41.0 °F - 39.9 °F 96% 30.15 in 2.0 mi Calm Calm - N/A   Partly Cloudy
3:03 AM 37.9 °F - 37.9 °F 100% 30.15 in 1.0 mi Calm Calm - N/A   Mist
3:10 AM 39.0 °F 36.8 °F 39.0 °F 100% 30.15 in 0.5 mi NNE 3.5 mph - N/A Fog Fog
3:19 AM 37.9 °F - 37.9 °F 100% 30.15 in 1.5 mi Calm Calm - N/A   Clear
3:22 AM 39.0 °F - 37.9 °F 96% 30.15 in 3.0 mi Calm Calm - N/A   Clear
3:28 AM 37.0 °F 33.3 °F 37.0 °F 100% 30.15 in 1.5 mi WNW 4.6 mph - N/A   Clear
3:35 AM 39.0 °F 36.8 °F 37.0 °F 93% 30.14 in 1.0 mi NW 3.5 mph - N/A   Clear
3:39 AM 39.9 °F 37.8 °F 39.0 °F 97% 30.14 in 2.5 mi NNW 3.5 mph - N/A   Clear
3:46 AM 39.0 °F 35.7 °F 39.0 °F 100% 30.14 in 3.0 mi NNW 4.6 mph - N/A   Clear
3:56 AM 39.9 °F 35.8 °F 37.9 °F 93% 30.14 in 3.0 mi NNW 5.8 mph - N/A   Clear
4:06 AM 39.9 °F 35.1 °F 39.0 °F 97% 30.14 in 2.0 mi NNW 6.9 mph - N/A   Clear
4:17 AM 42.1 °F 37.1 °F 39.9 °F 92% 30.15 in 4.0 mi NW 8.1 mph - N/A   Clear
4:56 AM 43.0 °F 40.3 °F 42.1 °F 97% 30.14 in 5.0 mi ENE 4.6 mph - N/A   Clear
5:56 AM 39.0 °F 35.7 °F 37.9 °F 96% 30.13 in 9.0 mi East 4.6 mph - N/A   Clear
6:56 AM 37.0 °F - 37.0 °F 100% 30.14 in 5.0 mi Calm Calm - N/A   Clear
7:56 AM 37.0 °F 34.5 °F 36.0 °F 96% 30.14 in 7.0 mi ENE 3.5 mph - N/A   Clear
8:56 AM 45.0 °F - 45.0 °F 100% 30.15 in 7.0 mi Calm Calm - N/A   Clear
9:56 AM 51.1 °F - 46.0 °F 83% 30.14 in 10.0 mi Calm Calm - N/A   Clear
10:56 AM 54.0 °F - 43.0 °F 66% 30.15 in 9.0 mi South 5.8 mph - N/A   Clear
11:56 AM 55.9 °F - 41.0 °F 57% 30.12 in 10.0 mi SSW 4.6 mph - N/A   Clear
12:56 PM 55.9 °F - 43.0 °F 62% 30.09 in 9.0 mi WNW 4.6 mph - N/A   Clear
1:56 PM 57.0 °F - 39.9 °F 53% 30.06 in 10.0 mi Calm Calm - N/A   Clear
2:56 PM 54.0 °F - 41.0 °F 62% 30.05 in 10.0 mi South 4.6 mph - N/A   Clear
3:56 PM 53.1 °F - 45.0 °F 74% 30.11 in 10.0 mi West 4.6 mph - N/A   Clear
4:27 PM 51.1 °F - 45.0 °F 80% 30.11 in 9.0 mi NNW 5.8 mph - N/A   Scattered Clouds
4:36 PM 51.1 °F - 45.0 °F 80% 30.11 in 9.0 mi NNW 6.9 mph - N/A   Mostly Cloudy
4:56 PM 48.9 °F - 45.0 °F 86% 30.12 in 6.0 mi NNW 5.8 mph - N/A   Overcast
5:07 PM 48.0 °F - 44.1 °F 86% 30.11 in 6.0 mi NNW 5.8 mph - N/A   Overcast
5:56 PM 46.0 °F - 43.0 °F 89% 30.12 in 8.0 mi Calm Calm - N/A   Overcast
6:56 PM 46.9 °F - 44.1 °F 90% 30.13 in 10.0 mi Calm Calm - N/A   Overcast
7:56 PM 46.0 °F - 44.1 °F 93% 30.12 in 9.0 mi Calm Calm - N/A   Overcast
8:04 PM 46.0 °F - 44.1 °F 93% 30.12 in 9.0 mi Calm Calm - N/A   Overcast
8:20 PM 46.0 °F - 44.1 °F 93% 30.12 in 9.0 mi Calm Calm - N/A   Overcast
8:52 PM 46.4 °F - 44.6 °F 93% 30.12 in 8.0 mi Calm Calm - N/A   Overcast
8:56 PM 46.9 °F - 44.1 °F 90% 30.13 in 7.0 mi ENE 3.5 mph - N/A   Overcast
9:46 PM 45.0 °F - 43.0 °F 93% 30.12 in 1.8 mi Calm Calm - N/A   Overcast
9:51 PM 44.6 °F - 42.8 °F 93% 30.12 in 0.8 mi Calm Calm - N/A   Overcast
9:56 PM 45.0 °F - 43.0 °F 93% 30.13 in 0.5 mi Calm Calm - N/A Fog Fog
10:56 PM 43.0 °F - 42.1 °F 97% 30.12 in 0.2 mi Calm Calm - N/A Fog Fog
11:56 PM 42.1 °F 40.2 °F 41.0 °F 96% 30.12 in 0.2 mi NE 3.5 mph - N/A Fog Fog